Regional Weather Roundup
Issued by NWS

Home | Current Version | Previous Version | Graphics & Text | Print | Product List | Glossary Off
Versions: 1 2 3 4 5 6 7 8 9 10 11 12 13 14 15 16 17 18 19 20 21 22 23 24 25 26 27 28 29 30 31 32 33 34 35 36 37 38 39 40 41 42 43 44 45 46 47 48 49 50

645
ASUS43 KDMX 261806
RWRIA

WEATHER ROUNDUP FOR IOWA
NATIONAL WEATHER SERVICE DES MOINES IA
100 PM CDT TUE SEP 26 2017

NOTE: "FAIR" INDICATES FEW OR NO CLOUDS BELOW 12,000 FEET WITH NO
SIGNIFICANT WEATHER AND/OR OBSTRUCTIONS TO VISIBILITY.

* - THESE STATIONS ARE NOT NWS STATIONS...THUS NOT UNDER NWS
QUALITY CONTROL.  THEY ALSO DO NOT REPORT WEATHER SUCH
AS PRECIPITATION OR FOG.

IAZ001>003-012>014-020>022-031>034-043>046-261900-
   NORTHWEST IOWA

CITY           SKY/WX    TMP DP  RH WIND       PRES   REMARKS
SIOUX CITY     CLOUDY    54  50  86 NW14      30.14S
6HR MIN TEMP:  51; 6HR MAX TEMP:  55;

SPENCER        CLOUDY    62  51  67 NW13      30.08F
6HR MIN TEMP:  53; 6HR MAX TEMP:  63; 6HR PCP: TRACE;

$$

IAZ055>058-069>071-079>083-090>094-261900-
   SOUTHWEST IOWA

CITY           SKY/WX    TMP DP  RH WIND       PRES   REMARKS
LAMONI         CLOUDY    67  60  78 NW13G20   30.05S
6HR MIN TEMP:  64; 6HR MAX TEMP:  67; 6HR PCP: TRACE;

$$

IAZ047>049-059>061-072>074-084-261900-
   CENTRAL IOWA

CITY           SKY/WX    TMP DP  RH WIND       PRES   REMARKS
AMES           CLOUDY    63  57  81 NW16      30.06R
6HR MIN TEMP:  62; 6HR MAX TEMP:  66; 6HR PCP: TRACE;

DES MOINES     CLOUDY    65  57  75 NW14      30.04S
6HR MIN TEMP:  63; 6HR MAX TEMP:  67; 6HR PCP:  0.03;

MARSHALLTOWN   CLOUDY    66  60  81 NW14      30.02S
6HR MIN TEMP:  63; 6HR MAX TEMP:  67; 6HR PCP:  0.03;

$$

IAZ004>006-015-016-023>025-035-036-261900-
   NORTH CENTRAL IOWA

CITY           SKY/WX    TMP DP  RH WIND       PRES   REMARKS
ESTHERVILLE    CLOUDY    60  52  74 NW14      30.07S
6HR MIN TEMP:  53; 6HR MAX TEMP:  60;

FORT DODGE *   CLOUDY    61  54  77 VRB7G16   30.08S
MASON CITY     CLOUDY    62  54  74 NW17      30.06R
6HR MIN TEMP:  58; 6HR MAX TEMP:  62; 6HR PCP: TRACE;

$$

IAZ007>011-017>019-026>030-037>042-050>054-066-261900-
   NORTHEAST IOWA

CITY           SKY/WX    TMP DP  RH WIND       PRES   REMARKS
CEDAR RAPIDS   CLOUDY    73  67  81 W9        29.98F
6HR MIN TEMP:  67; 6HR MAX TEMP:  73; 6HR PCP: TRACE;

CLINTON *      CLOUDY   N/A N/A N/A W13       29.95F
DUBUQUE        CLOUDY    74  66  76 W14       29.98S
6HR MIN TEMP:  66; 6HR MAX TEMP:  76;

WATERLOO       CLOUDY    65  60  84 W12G18    30.00S
6HR MIN TEMP:  63; 6HR MAX TEMP:  66; 6HR PCP:  0.03;

$$

IAZ064-065-067-068-078-261900-
   EAST CENTRAL IOWA

CITY           SKY/WX    TMP DP  RH WIND       PRES   REMARKS
DAVENPORT      CLOUDY    80  66  62 W12G17    29.98S HX  82
6HR MIN TEMP:  68; 6HR MAX TEMP:  81;

IOWA CITY      LGT RAIN  74  65  73 NW9       29.99S
6HR MIN TEMP:  69; 6HR MAX TEMP:  78; 6HR PCP: TRACE;

QUAD CITIES    CLOUDY    82  68  62 W14       29.95S HX  85
6HR MIN TEMP:  68; 6HR MAX TEMP:  82;

$$

IAZ062-063-075>077-085>089-095>099-261900-
   SOUTHEAST IOWA

CITY           SKY/WX    TMP DP  RH WIND       PRES   REMARKS
BURLINGTON     PTSUNNY   82  68  62 W8        29.97S HX  85
6HR MIN TEMP:  68; 6HR MAX TEMP:  82;

OTTUMWA        CLOUDY    68  64  87 NW13      30.01R
6HR MIN TEMP:  66; 6HR MAX TEMP:  73; 6HR PCP:  0.02;

$$

ABBREVIATIONS USED IN REMARKS
   TC - TEMPERATURES IN CELSIUS
  WCI - WIND CHILL INDEX
   HX - HEAT INDEX
  VSB - VISIBILITY
$$





USA.gov is the U.S. government's official web portal to all federal, state and local government web resources and services.